Location: Praha
(50.0830°N, 14.4670°E)
Time: 19:53:36
(UTC+01:00)

ISS - Pass Details

Date: 20 December 2019
Orbit: 411 x 421 km, 51.6° (Epoch: 08 December)

Event Time Altitude Azimuth Distance (km) Brightness Sun altitude
Rises 07:06:51 0° 200° (SSW) 2,330 0.1 -7.7°
Reaches altitude 10° 07:09:33 10° 176° (S) 1,474 -0.5 -7.3°
Maximum altitude 07:11:33 15° 139° (SE) 1,200 -0.2 -7.1°
Drops below altitude 10° 07:13:34 10° 101° (ESE) 1,480 0.5 -6.8°
Sets 07:16:16 0° 78° (ENE) 2,347 0.9 -6.4°
